| time (UTC) | temp F | wind direction | speed knots | gust knots | rain 1hr in | rain 24hr in | rain mn in | humidity % | barometer mb |
| 20260503192003 | 50 | 233 | 1.7 | 4.3 | 0.00 | 0.00 | 0.00 | 82 | 1027.3 |
| 20260503191002 | 50 | 227 | 0.9 | 2.6 | 0.00 | 0.00 | 0.00 | 81 | 1027.3 |
| 20260503190003 | 50 | 172 | 0.9 | 1.7 | 0.00 | 0.00 | 0.00 | 81 | 1027.3 |
| 20260503185002 | 50 | 204 | 0.9 | 1.7 | 0.00 | 0.00 | 0.00 | 81 | 1027.2 |
| 20260503184003 | 51 | 196 | 1.7 | 2.6 | 0.00 | 0.00 | 0.00 | 81 | 1027.1 |
| 20260503183003 | 51 | 203 | 0.9 | 1.7 | 0.00 | 0.00 | 0.00 | 81 | 1027.1 |
| 20260503182002 | 51 | 193 | 0.9 | 0.9 | 0.00 | 0.00 | 0.00 | 81 | 1027.1 |
| 20260503181003 | 51 | 209 | 0.9 | 1.7 | 0.00 | 0.00 | 0.00 | 81 | 1027.2 |
| 20260503180024 | 51 | 203 | 1.7 | 4.3 | 0.00 | 0.00 | 0.00 | 81 | 1027.2 |
| 20260503175003 | 51 | 218 | 1.7 | 2.6 | 0.00 | 0.00 | 0.00 | 80 | 1027.2 |
| 20260503174002 | 51 | 66 | 0.9 | 0.9 | 0.00 | 0.00 | 0.00 | 79 | 1027.2 |
| 20260503173002 | 52 | 231 | 0.0 | 0.0 | 0.00 | 0.00 | 0.00 | 78 | 1027.2 |
| 20260503172003 | 52 | 14 | 0.9 | 1.7 | 0.00 | 0.00 | 0.00 | 79 | 1027.2 |
| 20260503171003 | 52 | 216 | 0.9 | 2.6 | 0.00 | 0.00 | 0.00 | 79 | 1027.2 |
| 20260503151002 | 54 | 92 | 0.9 | 4.3 | 0.00 | 0.00 | 0.00 | 77 | 1027.0 |
| 20260503131003 | 54 | 222 | 0.0 | 1.7 | 0.00 | 0.00 | 0.00 | 82 | 1026.7 |
| 20260503081003 | 68 | 81 | 0.9 | 2.6 | 0.00 | 0.00 | 0.00 | 49 | 1025.0 |
| 20260503072002 | 69 | 196 | 1.7 | 2.6 | 0.00 | 0.00 | 0.00 | 49 | 1024.9 |
| 20260503071003 | 69 | 89 | 2.6 | 5.2 | 0.00 | 0.00 | 0.00 | 50 | 1024.9 |
| 20260503055003 | 67 | 60 | 2.6 | 5.2 | 0.00 | 0.00 | 0.00 | 53 | 1025.5 |
| 20260503054023 | 66 | 104 | 1.7 | 5.2 | 0.00 | 0.00 | 0.00 | 54 | 1025.4 |
| 20260503053002 | 66 | 85 | 3.5 | 6.1 | 0.00 | 0.00 | 0.00 | 55 | 1025.5 |
| 20260503052024 | 66 | 66 | 1.7 | 4.3 | 0.00 | 0.00 | 0.00 | 57 | 1025.5 |
| 20260503051004 | 65 | 78 | 5.2 | 8.7 | 0.00 | 0.00 | 0.00 | 56 | 1025.7 |
| 20260503050024 | 65 | 99 | 1.7 | 2.6 | 0.00 | 0.00 | 0.00 | 57 | 1025.9 |
| 20260503045024 | 66 | 78 | 2.6 | 4.3 | 0.00 | 0.00 | 0.00 | 57 | 1026.0 |
| 20260503044003 | 65 | 74 | 3.5 | 6.1 | 0.00 | 0.00 | 0.00 | 57 | 1026.2 |
| 20260503043003 | 64 | 80 | 1.7 | 2.6 | 0.00 | 0.00 | 0.00 | 59 | 1026.3 |
| 20260503042003 | 64 | 93 | 2.6 | 6.1 | 0.00 | 0.00 | 0.00 | 61 | 1026.5 |
| 20260503041003 | 62 | 124 | 0.9 | 4.3 | 0.00 | 0.00 | 0.00 | 62 | 1026.8 |
| 20260503040002 | 62 | 103 | 1.7 | 2.6 | 0.00 | 0.00 | 0.00 | 63 | 1027.0 |
| 20260503035003 | 62 | 193 | 0.9 | 1.7 | 0.00 | 0.00 | 0.00 | 65 | 1027.1 |
| 20260503034003 | 61 | 86 | 1.7 | 5.2 | 0.00 | 0.00 | 0.00 | 66 | 1027.1 |
| 20260503033024 | 61 | 108 | 3.5 | 7.0 | 0.00 | 0.00 | 0.00 | 65 | 1027.3 |
| 20260503032003 | 61 | 57 | 4.3 | 8.7 | 0.00 | 0.00 | 0.00 | 64 | 1027.4 |
| 20260503031003 | 61 | 16 | 0.9 | 4.3 | 0.00 | 0.00 | 0.00 | 65 | 1027.5 |
| 20260503030003 | 61 | 105 | 2.6 | 6.1 | 0.00 | 0.00 | 0.00 | 66 | 1027.5 |
| 20260503025002 | 60 | 135 | 1.7 | 2.6 | 0.00 | 0.00 | 0.00 | 66 | 1027.7 |
| 20260503024002 | 60 | 93 | 2.6 | 4.3 | 0.00 | 0.00 | 0.00 | 66 | 1027.8 |
| 20260503023003 | 59 | 73 | 1.7 | 4.3 | 0.00 | 0.00 | 0.00 | 66 | 1027.9 |
| 20260503022003 | 59 | 163 | 1.7 | 4.3 | 0.00 | 0.00 | 0.00 | 67 | 1027.9 |
| 20260503021003 | 59 | 196 | 0.0 | 0.0 | 0.00 | 0.00 | 0.00 | 69 | 1027.9 |
| 20260503020003 | 58 | 103 | 1.7 | 4.3 | 0.00 | 0.00 | 0.00 | 71 | 1027.9 |
| 20260503015003 | 57 | 88 | 1.7 | 2.6 | 0.00 | 0.00 | 0.00 | 71 | 1027.9 |
| 20260503014023 | 57 | 66 | 1.7 | 4.3 | 0.00 | 0.00 | 0.00 | 71 | 1027.8 |
| 20260503013002 | 56 | 86 | 3.5 | 6.1 | 0.00 | 0.00 | 0.00 | 71 | 1027.8 |
| 20260503012003 | 56 | 78 | 3.5 | 6.1 | 0.00 | 0.00 | 0.00 | 75 | 1027.8 |
| 20260503011003 | 55 | 112 | 1.7 | 2.6 | 0.00 | 0.00 | 0.00 | 77 | 1027.8 |
| 20260503010003 | 54 | 107 | 1.7 | 4.3 | 0.00 | 0.00 | 0.00 | 79 | 1027.8 |
| 20260503005003 | 53 | 130 | 0.9 | 1.7 | 0.00 | 0.00 | 0.00 | 83 | 1027.7 |
| 20260503004003 | 52 | 150 | 1.7 | 4.3 | 0.00 | 0.00 | 0.00 | 87 | 1027.7 |
| 20260503003024 | 50 | 16 | 1.7 | 4.3 | 0.00 | 0.00 | 0.00 | 90 | 1027.8 |
| 20260503001003 | 48 | 107 | 0.9 | 1.7 | 0.00 | 0.00 | 0.00 | 90 | 1027.6 |
| 20260502235003 | 48 | 135 | 0.0 | 0.0 | 0.00 | 0.00 | 0.00 | 91 | 1027.3 |
| 20260502234003 | 46 | 101 | 1.7 | 2.6 | 0.00 | 0.00 | 0.00 | 93 | 1027.1 |
| 20260502233003 | 44 | 59 | 0.0 | 0.0 | 0.00 | 0.00 | 0.00 | 91 | 1027.0 |
| 20260502232024 | 43 | 53 | 0.9 | 2.6 | 0.00 | 0.00 | 0.00 | 90 | 1026.9 |
| 20260502231024 | 44 | 255 | 0.9 | 1.7 | 0.00 | 0.00 | 0.00 | 90 | 1026.8 |
| 20260502230003 | 43 | 9 | 0.9 | 2.6 | 0.00 | 0.00 | 0.00 | 90 | 1026.6 |
| 20260502223003 | 44 | 50 | 0.9 | 4.3 | 0.00 | 0.00 | 0.00 | 89 | 1026.4 |
| 20260502222003 | 44 | 175 | 0.9 | 4.3 | 0.00 | 0.00 | 0.00 | 90 | 1026.4 |
| 20260502221003 | 44 | 198 | 2.6 | 6.1 | 0.00 | 0.00 | 0.00 | 90 | 1026.3 |
| 20260502220003 | 44 | 190 | 1.7 | 6.1 | 0.00 | 0.00 | 0.00 | 89 | 1026.2 |
| 20260502215024 | 44 | 211 | 2.6 | 5.2 | 0.00 | 0.00 | 0.00 | 89 | 1026.2 |
| 20260502214003 | 44 | 191 | 1.7 | 4.3 | 0.00 | 0.00 | 0.00 | 89 | 1026.2 |
| 20260502212024 | 44 | 212 | 0.9 | 4.3 | 0.00 | 0.00 | 0.00 | 89 | 1025.9 |
| 20260502211003 | 44 | 200 | 1.7 | 4.3 | 0.00 | 0.00 | 0.00 | 89 | 1025.9 |
| 20260502210002 | 44 | 182 | 0.9 | 2.6 | 0.00 | 0.00 | 0.00 | 89 | 1025.8 |
| 20260502205003 | 44 | 222 | 1.7 | 4.3 | 0.00 | 0.00 | 0.00 | 88 | 1025.7 |
| 20260502204002 | 44 | 207 | 1.7 | 5.2 | 0.00 | 0.00 | 0.00 | 89 | 1025.6 |
| 20260502203002 | 44 | 22 | 0.9 | 2.6 | 0.00 | 0.00 | 0.00 | 88 | 1025.7 |
| 20260502202002 | 44 | 211 | 0.0 | 1.7 | 0.00 | 0.00 | 0.00 | 88 | 1025.6 |
| 20260502201023 | 44 | 225 | 0.9 | 1.7 | 0.00 | 0.00 | 0.00 | 88 | 1025.7 |
| 20260502200002 | 44 | 81 | 0.9 | 0.9 | 0.00 | 0.00 | 0.00 | 88 | 1025.7 |
| 20260502195002 | 44 | 88 | 0.0 | 1.7 | 0.00 | 0.00 | 0.00 | 88 | 1025.6 |
| 20260502194023 | 45 | 73 | 0.0 | 0.0 | 0.00 | 0.00 | 0.00 | 87 | 1025.7 |
| 20260502193003 | 45 | 234 | 0.9 | 2.6 | 0.00 | 0.00 | 0.00 | 87 | 1025.7 |